Location: Piolenc
(44.1794°N, 4.7641°E)
Time: 04:49:40
(UTC+00:00)

Cosmos 2219 Rocket - Pass Details

Date: 27 January 2021
Orbit: 828 x 846 km, 71.0° (Epoch: 27 February)

Event Time Altitude Azimuth Distance (km) Brightness Sun altitude
Exits shadow 05:23:21 12° 334° (NNW) 2,310 4.1 -18.0°
Drops below altitude 10° 05:24:29 10° 345° (NNW) 2,443 4.4 -17.8°
Sets 05:28:34 0° 14° (NNE) 3,382 5.4 -17.1°
